Home > Weather > Santa Clara > Past weeks

Flag for USA Past Weather in Santa Clara, California, USA — Yesterday and Last 2 Weeks

Now
63 °F

Clear.


Feels Like: 63 °F
Forecast: 57 / 88 °F
Wind: 6 mph from Northwest

Location: San Jose International Airport

Current Time: Jun 25, 2016 at 1:57:09 AM

Latest Report: Jun 25, 2016 at 12:53 AM


Visibility: 10 mi

Pressure: 29.97 "Hg

Humidity: 73%

Dew Point: 54 °F

Location of Santa ClaraLocation

Past Weather in Santa Clara — Graph

°F

Santa Clara Temperature Yesterday

Maximum temperature yesterday: 81 °F (at 3:53 PM)
Minimum temperature yesterday: 57 °F (at 4:53 AM)
Average temperature yesterday: 68 °F

High & Low Weather Summary for the Past Weeks

 TemperatureHumidityPressure
High90 °F (Jun 21, 2:53 PM)87% (Jun 23, 5:53 AM)30.19 "Hg (Jun 23, 5:53 AM)
Low52 °F (Jun 15, 4:53 AM)19% (Jun 20, 3:53 PM)29.85 "Hg (Jun 11, 4:53 PM)
Average67 °F55%30.03 "Hg
* Reported Jun 9 11:53 PM — Jun 24 11:53 PM, Santa Clara, Weather by CustomWeather, © 2016

Note: Actual official high and low records may vary slightly from our data, if they occured in-between our weather recording intervals... More about our weather records

Advertising

Santa Clara Weather History for the Previous 24 Hours

Scroll right to see more
 ConditionsComfort  
Time TempWeatherWind HumidityBarometerVisibility
11:53 PM
Fri, Jun 24
64 °FClear.5 mph70%29.98 "Hg10 mi
10:53 PM66 °FClear.6 mph65%29.99 "Hg10 mi
9:53 PM69 °FClear.8 mph53%29.98 "Hg10 mi
8:53 PM69 °FSunny.6 mph49%29.97 "Hg10 mi
7:53 PM75 °FSunny.10 mph37%29.97 "Hg10 mi
6:53 PM76 °FSunny.14 mph37%29.98 "Hg10 mi
5:53 PM77 °FSunny.16 mph39%29.98 "Hg10 mi
4:53 PM79 °FSunny.16 mph36%29.99 "Hg10 mi
3:53 PM81 °FSunny.18 mph35%30.01 "Hg10 mi
2:53 PM80 °FSunny.13 mph34%30.03 "Hg10 mi
1:53 PM79 °FSunny.12 mph30%30.04 "Hg10 mi
12:53 PM76 °FSunny.10 mph40%30.05 "Hg10 mi
11:53 AM74 °FSunny.9 mph41%30.07 "Hg10 mi
10:53 AM70 °FSunny.No wind53%30.08 "Hg10 mi
9:53 AM66 °FPassing clouds.6 mph65%30.09 "Hg10 mi
8:53 AM64 °FPassing clouds.6 mph73%30.09 "Hg10 mi
7:53 AM62 °FPassing clouds.3 mph75%30.07 "Hg10 mi
6:53 AM59 °FPassing clouds.No wind84%30.07 "Hg10 mi
5:53 AM57 °FPassing clouds.No wind87%30.07 "Hg10 mi
4:53 AM57 °FClear.5 mph87%30.07 "Hg10 mi
3:53 AM58 °FClear.7 mph84%30.07 "Hg10 mi
2:53 AM58 °FClear.6 mph84%30.07 "Hg10 mi
1:53 AM60 °FClear.6 mph78%30.09 "Hg10 mi
Weather by CustomWeather, © 2016

See weather overviewHow to use our weather pages